Time,TemperatureF,DewpointF,PressureIn,WindDirection,WindDirectionDegrees,WindSpeedMPH,WindSpeedGustMPH,Humidity,HourlyPrecipIn,Conditions,Clouds,dailyrainin,SoftwareType,DateUTC
2013-05-08 00:03:00,60.2,58.0,30.03,ESE,104,5.0,9.0,92,0.02,,,0.00,weatherlink.com 1.10,2013-05-08 04:03:00,
2013-05-08 00:18:00,60.0,58.0,30.03,ENE,78,9.0,10.0,93,0.01,,,0.00,weatherlink.com 1.10,2013-05-08 04:18:00,
2013-05-08 00:33:00,59.8,58.0,30.02,ENE,78,4.0,10.0,94,0.04,,,0.03,weatherlink.com 1.10,2013-05-08 04:33:00,
2013-05-08 00:48:00,59.6,58.0,30.02,East,101,3.0,9.0,95,0.05,,,0.04,weatherlink.com 1.10,2013-05-08 04:48:00,
2013-05-08 01:03:00,59.7,58.0,30.02,East,94,5.0,8.0,95,0.04,,,0.04,weatherlink.com 1.10,2013-05-08 05:03:00,
2013-05-08 01:18:00,59.8,58.0,30.02,ESE,120,3.0,7.0,94,0.04,,,0.04,weatherlink.com 1.10,2013-05-08 05:18:00,
2013-05-08 01:33:00,60.0,58.0,30.01,SE,127,6.0,10.0,94,0.01,,,0.04,weatherlink.com 1.10,2013-05-08 05:33:00,
2013-05-08 01:48:00,60.0,58.0,30.01,ESE,121,3.0,11.0,94,0.00,,,0.04,weatherlink.com 1.10,2013-05-08 05:48:00,
2013-05-08 02:03:00,59.8,58.0,30.01,East,86,2.0,7.0,94,0.00,,,0.04,weatherlink.com 1.10,2013-05-08 06:03:00,
2013-05-08 02:18:00,59.6,58.0,30.00,ESE,110,7.0,10.0,95,0.00,,,0.04,weatherlink.com 1.10,2013-05-08 06:18:00,
2013-05-08 02:33:00,59.5,58.0,30.00,SE,128,2.0,7.0,95,0.00,,,0.04,weatherlink.com 1.10,2013-05-08 06:33:00,
2013-05-08 02:48:00,59.5,58.0,30.00,SE,125,2.0,3.0,95,0.00,,,0.04,weatherlink.com 1.10,2013-05-08 06:48:00,
2013-05-08 03:03:00,59.4,58.0,30.00,East,92,2.0,5.0,95,0.00,,,0.04,weatherlink.com 1.10,2013-05-08 07:03:00,
2013-05-08 03:18:00,59.4,58.0,29.99,ESE,122,2.0,4.0,95,0.00,,,0.04,weatherlink.com 1.10,2013-05-08 07:18:00,
2013-05-08 03:33:00,59.2,58.0,29.99,East,89,2.0,7.0,94,0.01,,,0.05,weatherlink.com 1.10,2013-05-08 07:33:00,
2013-05-08 03:48:00,59.0,57.0,29.98,ENE,76,2.0,5.0,94,0.01,,,0.05,weatherlink.com 1.10,2013-05-08 07:48:00,
2013-05-08 04:03:00,58.8,57.0,29.98,East,79,2.0,6.0,95,0.01,,,0.05,weatherlink.com 1.10,2013-05-08 08:03:00,
2013-05-08 04:18:00,58.6,57.0,29.98,East,82,3.0,9.0,95,0.01,,,0.05,weatherlink.com 1.10,2013-05-08 08:18:00,
2013-05-08 04:33:00,58.5,57.0,29.98,ENE,77,2.0,7.0,95,0.00,,,0.05,weatherlink.com 1.10,2013-05-08 08:33:00,
2013-05-08 04:48:00,58.4,57.0,29.98,East,85,2.0,5.0,95,0.00,,,0.05,weatherlink.com 1.10,2013-05-08 08:48:00,
2013-05-08 05:03:00,58.3,57.0,29.98,ENE,63,1.0,4.0,95,0.00,,,0.05,weatherlink.com 1.10,2013-05-08 09:03:00,
2013-05-08 05:18:00,58.3,57.0,29.98,North,360,0.0,3.0,95,0.00,,,0.05,weatherlink.com 1.10,2013-05-08 09:18:00,
2013-05-08 05:33:00,58.2,57.0,29.98,North,360,0.0,0.0,95,0.00,,,0.05,weatherlink.com 1.10,2013-05-08 09:33:00,
2013-05-08 05:48:00,58.2,57.0,29.98,ENE,65,0.0,2.0,95,0.00,,,0.05,weatherlink.com 1.10,2013-05-08 09:48:00,
2013-05-08 06:03:00,58.2,57.0,29.98,ENE,76,1.0,2.0,95,0.00,,,0.05,weatherlink.com 1.10,2013-05-08 10:03:00,
2013-05-08 06:18:00,58.2,57.0,29.98,NE,49,0.0,4.0,96,0.00,,,0.05,weatherlink.com 1.10,2013-05-08 10:18:00,
2013-05-08 06:33:00,58.1,57.0,29.98,NE,48,2.0,5.0,96,0.00,,,0.05,weatherlink.com 1.10,2013-05-08 10:33:00,
2013-05-08 06:48:00,58.3,57.0,29.99,ENE,74,2.0,4.0,96,0.00,,,0.05,weatherlink.com 1.10,2013-05-08 10:48:00,
2013-05-08 07:03:00,58.7,58.0,29.98,NE,48,0.0,5.0,96,0.00,,,0.05,weatherlink.com 1.10,2013-05-08 11:03:00,
2013-05-08 07:18:00,59.4,58.0,29.98,ENE,78,1.0,5.0,95,0.00,,,0.05,weatherlink.com 1.10,2013-05-08 11:18:00,
2013-05-08 07:33:00,59.8,58.0,29.99,East,96,3.0,8.0,93,0.00,,,0.05,weatherlink.com 1.10,2013-05-08 11:33:00,
2013-05-08 07:48:00,59.8,58.0,29.99,ENE,78,1.0,7.0,93,0.00,,,0.05,weatherlink.com 1.10,2013-05-08 11:48:00,
2013-05-08 08:03:00,60.2,58.0,29.99,NE,55,0.0,4.0,93,0.00,,,0.05,weatherlink.com 1.10,2013-05-08 12:03:00,
2013-05-08 08:18:00,60.5,59.0,29.99,East,82,1.0,7.0,93,0.00,,,0.05,weatherlink.com 1.10,2013-05-08 12:18:00,
2013-05-08 08:33:00,61.3,59.0,29.98,ENE,73,3.0,5.0,92,0.00,,,0.05,weatherlink.com 1.10,2013-05-08 12:33:00,
2013-05-08 08:48:00,62.0,59.0,29.99,East,86,2.0,8.0,90,0.00,,,0.05,weatherlink.com 1.10,2013-05-08 12:48:00,
2013-05-08 09:03:00,62.4,59.0,29.99,ESE,104,1.0,5.0,89,0.00,,,0.05,weatherlink.com 1.10,2013-05-08 13:03:00,
2013-05-08 09:18:00,62.1,59.0,29.99,East,98,0.0,5.0,90,0.00,,,0.05,weatherlink.com 1.10,2013-05-08 13:18:00,
2013-05-08 09:33:00,62.3,60.0,29.98,SSE,156,4.0,7.0,91,0.00,,,0.05,weatherlink.com 1.10,2013-05-08 13:33:00,
2013-05-08 09:48:00,63.0,60.0,29.98,South,177,4.0,8.0,90,0.00,,,0.05,weatherlink.com 1.10,2013-05-08 13:48:00,
2013-05-08 10:03:00,63.0,60.0,29.97,SW,221,7.0,10.0,89,0.00,,,0.05,weatherlink.com 1.10,2013-05-08 14:03:00,
2013-05-08 10:18:00,63.4,60.0,29.98,SW,219,3.0,7.0,89,0.00,,,0.05,weatherlink.com 1.10,2013-05-08 14:18:00,
2013-05-08 10:33:00,63.9,59.0,29.99,South,180,6.0,8.0,85,0.00,,,0.05,weatherlink.com 1.10,2013-05-08 14:33:00,
2013-05-08 10:48:00,63.4,60.0,29.99,SW,235,4.0,7.0,87,0.00,,,0.05,weatherlink.com 1.10,2013-05-08 14:48:00,
2013-05-08 11:03:00,62.8,60.0,29.99,WNW,289,4.0,7.0,89,0.00,,,0.05,weatherlink.com 1.10,2013-05-08 15:03:00,
2013-05-08 11:18:00,63.9,60.0,29.99,WSW,244,4.0,5.0,87,0.00,,,0.05,weatherlink.com 1.10,2013-05-08 15:18:00,
2013-05-08 11:33:00,64.3,59.0,29.99,South,178,3.0,10.0,84,0.00,,,0.05,weatherlink.com 1.10,2013-05-08 15:33:00,
2013-05-08 11:48:00,64.8,60.0,29.99,SSW,194,4.0,9.0,83,0.00,,,0.05,weatherlink.com 1.10,2013-05-08 15:48:00,
2013-05-08 12:03:00,65.2,60.0,29.98,SSW,205,8.0,15.0,82,0.00,,,0.05,weatherlink.com 1.10,2013-05-08 16:03:00,
2013-05-08 12:18:00,63.5,59.0,29.98,South,180,6.0,13.0,85,0.00,,,0.05,weatherlink.com 1.10,2013-05-08 16:18:00,
2013-05-08 12:33:00,64.0,60.0,29.98,South,186,4.0,10.0,86,0.00,,,0.05,weatherlink.com 1.10,2013-05-08 16:33:00,
2013-05-08 12:48:00,65.6,61.0,29.97,WSW,238,5.0,8.0,85,0.00,,,0.05,weatherlink.com 1.10,2013-05-08 16:48:00,
2013-05-08 13:03:00,67.4,60.0,29.97,SSW,196,6.0,10.0,77,0.00,,,0.05,weatherlink.com 1.10,2013-05-08 17:03:00,
2013-05-08 13:18:00,68.0,59.0,29.97,SSW,199,8.0,12.0,72,0.00,,,0.05,weatherlink.com 1.10,2013-05-08 17:18:00,
2013-05-08 13:33:00,68.8,58.0,29.96,SSE,152,1.0,9.0,68,0.00,,,0.05,weatherlink.com 1.10,2013-05-08 17:33:00,
2013-05-08 13:48:00,69.2,58.0,29.95,South,185,7.0,11.0,68,0.00,,,0.05,weatherlink.com 1.10,2013-05-08 17:48:00,
2013-05-08 14:03:00,69.3,58.0,29.95,SW,223,7.0,14.0,67,0.00,,,0.05,weatherlink.com 1.10,2013-05-08 18:03:00,
2013-05-08 14:18:00,70.1,56.0,29.95,South,191,4.0,14.0,61,0.00,,,0.05,weatherlink.com 1.10,2013-05-08 18:18:00,
2013-05-08 14:33:00,70.3,57.0,29.94,SSW,208,5.0,11.0,64,0.00,,,0.05,weatherlink.com 1.10,2013-05-08 18:33:00,
2013-05-08 14:49:00,71.2,56.0,29.94,SSW,203,3.0,11.0,59,0.00,,,0.05,weatherlink.com 1.10,2013-05-08 18:49:00,
2013-05-08 15:04:00,69.9,56.0,29.94,SSW,200,7.0,10.0,61,0.00,,,0.05,weatherlink.com 1.10,2013-05-08 19:04:00,
2013-05-08 15:19:00,70.9,55.0,29.93,ESE,107,8.0,11.0,57,0.00,,,0.05,weatherlink.com 1.10,2013-05-08 19:19:00,
2013-05-08 15:34:00,71.2,56.0,29.93,SE,128,5.0,12.0,58,0.00,,,0.05,weatherlink.com 1.10,2013-05-08 19:34:00,
2013-05-08 15:49:00,70.9,55.0,29.92,SE,144,2.0,12.0,58,0.00,,,0.05,weatherlink.com 1.10,2013-05-08 19:49:00,
2013-05-08 16:04:00,71.6,54.0,29.92,SE,138,5.0,10.0,55,0.00,,,0.05,weatherlink.com 1.10,2013-05-08 20:04:00,
2013-05-08 16:19:00,72.0,55.0,29.91,SSE,148,7.0,13.0,56,0.00,,,0.05,weatherlink.com 1.10,2013-05-08 20:19:00,
2013-05-08 16:34:00,71.5,53.0,29.92,South,175,6.0,12.0,53,0.00,,,0.05,weatherlink.com 1.10,2013-05-08 20:34:00,
2013-05-08 16:49:00,70.1,52.0,29.91,South,175,10.0,16.0,53,0.00,,,0.05,weatherlink.com 1.10,2013-05-08 20:49:00,
2013-05-08 17:04:00,69.4,54.0,29.91,SSE,161,5.0,17.0,59,0.00,,,0.05,weatherlink.com 1.10,2013-05-08 21:04:00,
2013-05-08 17:19:00,69.7,55.0,29.91,South,179,7.0,13.0,60,0.00,,,0.05,weatherlink.com 1.10,2013-05-08 21:19:00,
2013-05-08 17:34:00,70.1,54.0,29.92,SE,144,9.0,16.0,57,0.00,,,0.05,weatherlink.com 1.10,2013-05-08 21:34:00,
2013-05-08 17:49:00,69.3,48.0,29.92,SSW,212,11.0,21.0,47,0.00,,,0.05,weatherlink.com 1.10,2013-05-08 21:49:00,
2013-05-08 18:04:00,68.5,52.0,29.92,South,173,13.0,19.0,55,0.00,,,0.05,weatherlink.com 1.10,2013-05-08 22:04:00,
2013-05-08 18:19:00,67.7,51.0,29.93,South,178,7.0,16.0,55,0.00,,,0.05,weatherlink.com 1.10,2013-05-08 22:19:00,
2013-05-08 18:34:00,66.3,52.0,29.93,SSW,211,9.0,14.0,61,0.00,,,0.05,weatherlink.com 1.10,2013-05-08 22:34:00,
2013-05-08 18:49:00,65.4,51.0,29.93,South,180,4.0,12.0,61,0.00,,,0.05,weatherlink.com 1.10,2013-05-08 22:49:00,
2013-05-08 19:04:00,64.6,52.0,29.93,SSE,162,3.0,9.0,64,0.00,,,0.05,weatherlink.com 1.10,2013-05-08 23:04:00,
2013-05-08 19:19:00,64.1,53.0,29.94,SSW,198,6.0,9.0,67,0.00,,,0.05,weatherlink.com 1.10,2013-05-08 23:19:00,
2013-05-08 19:34:00,63.7,53.0,29.94,SSW,200,4.0,8.0,68,0.00,,,0.05,weatherlink.com 1.10,2013-05-08 23:34:00,
2013-05-08 19:49:00,63.3,53.0,29.95,SSW,205,4.0,7.0,69,0.00,,,0.05,weatherlink.com 1.10,2013-05-08 23:49:00,
2013-05-08 20:04:00,63.1,53.0,29.95,SSW,202,4.0,5.0,69,0.00,,,0.05,weatherlink.com 1.10,2013-05-09 00:04:00,
2013-05-08 20:19:00,63.1,53.0,29.95,SSW,213,2.0,4.0,69,0.00,,,0.05,weatherlink.com 1.10,2013-05-09 00:19:00,
2013-05-08 20:34:00,62.7,53.0,29.96,SW,219,7.0,7.0,71,0.00,,,0.05,weatherlink.com 1.10,2013-05-09 00:34:00,
2013-05-08 20:49:00,61.5,53.0,29.97,SSW,197,0.0,1.0,74,0.00,,,0.05,weatherlink.com 1.10,2013-05-09 00:49:00,
2013-05-08 21:04:00,60.5,53.0,29.97,SSW,194,2.0,5.0,76,0.00,,,0.05,weatherlink.com 1.10,2013-05-09 01:04:00,
2013-05-08 21:19:00,60.4,53.0,29.97,SW,226,1.0,6.0,76,0.00,,,0.05,weatherlink.com 1.10,2013-05-09 01:19:00,
2013-05-08 21:34:00,60.3,53.0,29.97,SSW,204,0.0,5.0,77,0.00,,,0.05,weatherlink.com 1.10,2013-05-09 01:34:00,
2013-05-08 21:49:00,60.1,54.0,29.98,SSW,204,0.0,1.0,80,0.00,,,0.05,weatherlink.com 1.10,2013-05-09 01:49:00,
2013-05-08 22:04:00,60.0,53.0,29.98,SE,132,1.0,3.0,78,0.00,,,0.05,weatherlink.com 1.10,2013-05-09 02:04:00,
2013-05-08 22:19:00,60.1,53.0,29.98,SE,138,1.0,2.0,77,0.00,,,0.05,weatherlink.com 1.10,2013-05-09 02:19:00,
2013-05-08 22:34:00,60.0,53.0,29.98,SE,128,1.0,5.0,77,0.00,,,0.05,weatherlink.com 1.10,2013-05-09 02:34:00,
2013-05-08 22:49:00,59.9,54.0,29.98,ESE,114,2.0,4.0,80,0.00,,,0.05,weatherlink.com 1.10,2013-05-09 02:49:00,
2013-05-08 23:04:00,59.4,55.0,29.98,SSE,150,1.0,3.0,85,0.00,,,0.05,weatherlink.com 1.10,2013-05-09 03:04:00,
2013-05-08 23:19:00,58.7,55.0,29.97,SE,139,0.0,2.0,87,0.01,,,0.06,weatherlink.com 1.10,2013-05-09 03:19:00,
2013-05-08 23:34:00,58.4,55.0,29.97,SE,139,0.0,0.0,88,0.01,,,0.06,weatherlink.com 1.10,2013-05-09 03:34:00,
2013-05-08 23:49:00,58.1,55.0,29.96,SE,139,0.0,1.0,88,0.01,,,0.06,weatherlink.com 1.10,2013-05-09 03:49:00,